This is the latest recevied weather packets stored in our database for station/object DF7ER-12. If no packets are shown the sender has not sent any weather packets the latest 10 day(s).
| Time | Temp. | Humidity | Pressure | Rain* | Wind** | Luminosity | Snow |
|---|---|---|---|---|---|---|---|
| 1788444473 | 22.22° C | 96% | 1003.7 hPa | - | - | - | - |
| 1788444173 | 22.22° C | 98% | 1003.7 hPa | - | - | - | - |
| 1788443873 | 22.22° C | 96% | 1003.7 hPa | - | - | - | - |
| 1788443573 | 22.78° C | 94% | 1003.8 hPa | - | - | - | - |
| 1788443273 | 22.78° C | 93% | 1003.8 hPa | - | - | - | - |
| 1788442973 | 22.78° C | 92% | 1003.6 hPa | - | - | - | - |
| 1788442673 | 22.78° C | 90% | 1003.7 hPa | - | - | - | - |
| 1788442373 | 22.78° C | 91% | 1003.7 hPa | - | - | - | - |
| 1788442073 | 22.78° C | 91% | 1003.7 hPa | - | - | - | - |
| 1788441773 | 22.78° C | 90% | 1003.7 hPa | - | - | - | - |
| 1788441473 | 22.78° C | 91% | 1003.8 hPa | - | - | - | - |
| 1788441173 | 22.78° C | 90% | 1003.7 hPa | - | - | - | - |
| 1788440873 | 22.78° C | 91% | 1003.8 hPa | - | - | - | - |
| 1788440573 | 22.78° C | 88% | 1003.7 hPa | - | - | - | - |
| 1788440273 | 23.33° C | 88% | 1003.7 hPa | - | - | - | - |
| 1788439973 | 22.78° C | 88% | 1003.6 hPa | - | - | - | - |
| 1788439673 | 22.78° C | 87% | 1003.6 hPa | - | - | - | - |
| 1788439373 | 22.78° C | 87% | 1003.6 hPa | - | - | - | - |
| 1788439073 | 22.78° C | 86% | 1003.6 hPa | - | - | - | - |
| 1788438773 | 23.33° C | 84% | 1003.5 hPa | - | - | - | - |
| 1788438473 | 22.78° C | 87% | 1003.5 hPa | - | - | - | - |
| 1788438173 | 23.33° C | 86% | 1003.4 hPa | - | - | - | - |
| 1788437873 | 22.78° C | 88% | 1003.5 hPa | - | - | - | - |
| 1788437593 | 22.78° C | 88% | 1003.5 hPa | - | - | - | - |
| 1788437273 | 22.78° C | 88% | 1003.5 hPa | - | - | - | - |
* Rain since midnight (hover to see other rain measurements)
** Current wind speed in m/s (hover to see current wind gust speed)